CLUSTER II-FM5 (RUMBA)  
1 26463U 00045A   19260.94541721 -.00000030  00000-0  00000+0 0  9994
2 26463 134.5407 340.0355 4927719 181.8414   0.3147  0.44216378 21714
CLUSTER II-FM8 (TANGO)  
1 26464U 00045B   19257.33505260 -.00000070  00000-0  00000-0 0  9997
2 26464 131.3731 339.5508 4171781 175.5013 189.9226  0.44220242  9384